Tracking 19794 objects as of 21-Jul-2019
HD Live streaming from Space Station
objects crossing your sky now

AMC-2 (GE-2)

Track AMC-2 (GE-2) now!
AMC-2 (GE-2) is classified as:


NORAD ID: 24713
Int'l Code: 1997-002A
Perigee: 35,769.2 km
Apogee: 35,817.9 km
Inclination: 5.7 °
Period: 1,436.1 minutes
Semi major axis: 42164 km
RCS: 28.4382 m2 (large)
Launch date: January 30, 1997
Source: SOCIETE EUROPEENNE DES SATELLITES (SES)
Launch site: FRENCH GUIANA (FRGUI)

Broadcasting, business, cable; CONUS, Hawaii, Caribbean, southern Canada; 24 Ku- and 24 C-band
aabbcc
Your satellite tracking list
Your tracking list is empty




NASA's NSSDC Master Catalog

Two Line Element Set (TLE):
1 24713U 97002A   19201.59916507 -.00000220  00000-0  00000+0 0  9994
2 24713   5.7420  62.1080 0005772  57.6248 309.1986  1.00272448 33029
Source of the keplerian elements: AFSPC